Regional Weather Roundup
Issued by NWS

Home | Current Version | Previous Version | Graphics & Text | Print | Product List | Glossary On
Versions: 1 2 3 4 5 6 7 8 9 10 11 12 13 14 15 16 17 18 19 20 21 22 23 24 25 26 27 28 29 30 31 32 33 34 35 36 37 38 39 40 41 42 43 44 45 46 47 48 49 50
000
ASUS43 KTOP 282208
RWRKS

WEATHER ROUNDUP FOR KANSAS
NATIONAL WEATHER SERVICE GOODLAND KS
500 PM CDT SUN MAY 28 2017

NOTE:  "FAIR" INDICATES FEW OR NO CLOUDS BELOW 12,000 FEET WITH NO
SIGNIFICANT WEATHER AND/OR OBSTRUCTIONS TO VISIBILITY.

KSZ001>006-013>018-027>032-041>047-282300-
NORTHWEST KANSAS

CITY           SKY/WX    TMP DP  RH WIND       PRES   REMARKS
GOODLAND       MOSUNNY   75  41  29 W12       30.13F
HAYS           MOSUNNY   80  46  30 NW9G23    30.05F
HILL CITY      MOSUNNY   81  44  27 NW12      30.05F
RUSSELL        MOSUNNY   79  45  29 NW9G20    30.02F
$$

KSZ061>065-074>080-084>089-282300-
SOUTHWEST KANSAS

CITY           SKY/WX    TMP DP  RH WIND       PRES   REMARKS
DODGE CITY     SUNNY     79  43  27 N10       30.09S
ELKHART          N/A     71  37  28 MISG        N/A
GARDEN CITY    SUNNY     79  38  22 NW15      30.10F
GREAT BEND     MOSUNNY   79  48  33 N12       30.05F
LIBERAL        CLOUDY    76  41  28 N5G18     30.13F
PRATT          PTSUNNY   78  41  26 N10       30.05F
$$

KSZ066>073-081>083-090>101-282300-
SOUTHEAST KANSAS

CITY           SKY/WX    TMP DP  RH WIND       PRES   REMARKS
CHANUTE        SUNNY     82  48  30 NW17      29.98F
COFFEYVILLE    SUNNY     82  50  32 W9        29.98F
HUTCHINSON     SUNNY     82  45  27 NW8       30.01F
MEDICINE LODGE   N/A     83  41  22 N10       30.02F
NEWTON         PTSUNNY   82  46  28 W20       30.02F
PARSONS        SUNNY     83  48  29 NW8       29.99F
WICHITA INTL   MOSUNNY   80  45  28 NW9       30.01F
WICHITA JABRA  MOSUNNY   82  44  26 NW13G20   30.00F
WICHITA MCCONL MOSUNNY   82  43  24 W9        30.00F
WINFIELD       SUNNY     82  46  28 NW8G18    30.01F
$$

KSZ007>012-019>026-033>040-048>060-102>105-282300-
NORTHEAST KANSAS

CITY           SKY/WX    TMP DP  RH WIND       PRES   REMARKS
CONCORDIA      MOSUNNY   76  50  40 NW8       29.98F
EMPORIA        MOSUNNY   79  48  33 NW13G26   29.98F
LAWRENCE       MOSUNNY   81  51  35 NW18      29.95S
MANHATTAN      SUNNY     82  50  32 W7        29.96F
MARYSVILLE     MOSUNNY   81  50  34 W12       29.93F
OLATHE IND     MOSUNNY   79  50  36 NW16      29.95F
OLATHE EXE     MOSUNNY   78  51  38 NW13G24   29.95S
SALINA         SUNNY     83  47  28 W13       30.00F
TOPEKA BILLARD MOSUNNY   81  48  31 NW12      29.95F
TOPEKA FORBES  MOSUNNY   82  49  31 NW14G24   29.96S
$$




USA.gov is the U.S. government's official web portal to all federal, state and local government web resources and services.